sat.trackr.live / text

‹ back to catalog

STARLINK-4532

NORAD 53424 · 2022-097AN

PAYLOAD ACTIVE UNKNOWN

§ Identity

Operator
Country
US
Launch date
2022-08-10
Launch site
AFETR
Launch vehicle
Mass (kg)
RCS (m²)

Purposes: comms

External: N2YO · Heavens-Above · Gunter

§ Orbital elements

Epoch: 2026-09-19T19:12:01.291680Z

Period
94.01 min
Inclination
53.1592°
Eccentricity
0.0001013
Mean motion
15.31698062 rev/d
Perigee alt
470.1 km
Apogee alt
471.4 km
Semi-major
6,848.9 km
B*
-1.1443e-5
RAAN
310.0797°
Arg perigee
80.3067°
Mean anomaly
279.8049°
Rev number
22,812

§ Raw data

STARLINK-45321 53424U 22097AN  26262.80001495 -.00000720  00000+0 -11443-4 0  99902 53424  53.1592 310.0797 0001013  80.3067 279.8049 15.31698062228126

JSON: /api/v1/satellites/53424 · /tle

For live sub-satellite position, see the globe view (requires WebGL).

§ Visibility from observer

Set your observer location to see the next 7 days of passes ≥ 10°. The values pass through the URL so the page stays shareable.

No JS? Fill the form by hand. The geolocation button needs JavaScript.